Location: Newark
(20.1720°N, 90.0102°W)
Time: 23:02:27
(UTC+00:00)

Hubble Space Telescope - Visible Passes

Search period start: 20 July 2019 00:00
Search period end: 30 July 2019 00:00
Orbit: 536 x 540 km, 28.5° (Epoch: 19 July)

Date Brightness Start Highest point End Pass type
(mag) Time Alt. Az. Time Alt. Az. Time Alt. Az.
22 Jul 1.6 11:07:13 10° SW 11:11:07 41° SSE 11:15:02 10° E visible
23 Jul 1.1 10:56:34 10° SW 11:00:34 56° SSE 11:04:36 10° ENE visible
24 Jul 3.6 09:11:19 11° ESE 09:11:19 11° ESE 09:11:39 10° ESE visible
24 Jul 0.8 10:46:39 15° WSW 10:50:02 75° SSE 10:54:09 10° ENE visible
25 Jul 3.7 09:01:22 11° ESE 09:01:22 11° ESE 09:01:41 10° E visible
25 Jul 0.7 10:36:43 20° WSW 10:39:30 84° NNW 10:43:38 10° ENE visible
26 Jul 3.8 08:51:24 11° E 08:51:24 11° E 08:51:30 10° E visible
26 Jul 0.9 10:26:44 25° W 10:29:00 66° NNW 10:33:06 10° ENE visible
27 Jul 1.2 10:16:44 29° W 10:18:30 52° NNW 10:22:32 10° ENE visible
28 Jul 1.6 10:06:42 32° WNW 10:08:01 43° NNW 10:11:58 10° ENE visible
29 Jul 1.8 09:56:40 32° NW 09:57:33 36° NNW 10:01:24 10° NE visible
